Lid_Strength_Index
13 12 13 14 14 14 16 15 17 16 15 12 10 9 9 8 8 7 7 6 6 6 5 5 6 9 10 10 10 10 11 11 12 12 11 12 13 13 13 13 14 14 14 14
19 14 13 16 14 14 14 14 14 14 14 9 8 8 9 8 7 8 7 6 6 6 7 9 8 9 10 11 11 11 11 12 12 12 13 13 14 14 14 14 15 14 15 15
20 13 15 17 14 14 13 12 13 15 12 9 9 9 10 10 10 9 7 6 7 10 11 11 10 11 11 12 12 12 12 12 13 13 14 14 14 14 15 15 14 15 15 15
19 17 21 13 10 10 12 11 11 10 10 9 9 10 10 11 13 11 6 7 9 10 11 11 11 12 12 12 12 13 13 13 14 14 14 14 14 14 15 15 15 15 16 16
18 19 16 13 12 12 13 13 10 11 10 9 9 9 11 11 12 13 13 13 13 13 12 12 12 12 12 13 13 13 14 14 15 14 14 14 15 15 14 15 16 17 16 17
16 20 20 14 11 9 10 16 10 11 10 10 11 13 13 12 12 13 13 13 13 13 13 12 12 13 13 13 13 14 14 15 14 14 14 15 15 15 16 16 16 16 16 17
16 17 16 12 10 9 16 14 11 10 9 11 12 12 12 12 13 12 12 12 12 12 12 12 12 12 13 14 14 14 14 13 13 13 14 15 16 16 16 16 17 18 18 18
15 17 18 10 10 13 11 10 11 10 9 11 11 12 13 12 12 13 13 12 12 13 14 14 13 13 14 15 14 14 14 14 15 15 15 15 16 17 17 18 18 18 18 18
14 14 11 10 10 10 10 11 11 11 9 10 12 13 13 14 14 12 13 13 13 15 15 14 14 13 14 15 15 15 16 16 16 16 16 17 18 18 18 17 18 19 19 19
12 10 9 10 11 11 11 12 11 10 10 11 11 12 13 14 14 14 14 14 14 15 15 16 16 16 16 16 15 16 16 16 17 18 17 17 17 17 18 19 20 20 19 19
11 10 10 10 11 11 11 11 11 10 10 11 12 13 13 13 14 14 14 15 15 16 17 17 16 16 15 15 15 16 17 17 17 17 18 19 19 19 19 18 18 19 18 18
12 9 10 10 10 10 12 12 11 12 12 12 13 13 14 14 14 15 16 16 16 17 16 16 15 15 15 15 15 17 18 18 18 19 19 20 20 19 14 14 14 14 14 15
10 9 9 10 10 11 12 12 12 12 12 14 14 14 14 15 15 15 16 16 16 16 16 15 15 15 15 15 16 17 19 18 18 19 19 20 20 20 20 18 14 14 14 13
9 9 10 10 11 12 12 12 12 13 13 14 14 14 14 15 16 16 16 15 15 15 15 15 16 17 17 16 17 18 18 16 19 19 20 20 20 20 19 19 20 19 16 14
9 9 9 11 12 13 13 14 14 15 15 16 15 15 16 17 17 17 16 15 15 16 16 16 17 17 17 17 18 19 19 19 20 20 19 18 19 19 19 19 19 19 19 17
10 10 11 13 14 14 14 14 15 15 15 16 17 17 17 17 17 17 16 16 17 18 18 18 18 18 17 18 19 19 18 16 18 20 19 19 19 19 19 19 19 20 20 19
11 13 14 15 14 14 14 14 14 15 16 16 17 17 17 17 18 18 18 18 18 18 18 18 19 18 18 18 18 19 20 19 17 19 19 19 19 19 19 19 20 20 20 18
10 10 10 12 12 13 13 14 14 15 16 17 17 17 18 18 19 19 19 19 19 19 19 19 19 19 19 19 19 19 20 20 19 20 19 19 19 19 19 20 20 20 20 18
10 10 10 10 11 11 13 14 15 16 17 17 17 18 18 18 19 19 19 19 19 20 19 18 16 18 19 17 18 19 20 20 20 20 19 18 20 20 20 20 20 20 20 19
11 10 9 10 10 12 14 14 16 16 16 16 17 18 19 19 19 19 19 19 19 19 18 18 19 19 19 17 17 20 20 20 20 20 20 21 20 20 20 19 19 19 19 18
12 11 11 11 12 13 14 15 15 16 16 17 17 18 18 19 18 18 19 19 19 17 18 17 20 20 19 18 20 20 20 20 21 21 21 21 20 20 20 20 19 19 18 18
12 12 12 12 13 15 15 15 15 16 16 17 17 18 18 19 19 19 18 18 17 15 18 19 19 17 18 17 20 21 21 20 21 21 21 21 21 21 22 22 22 20 19 19
12 12 12 13 14 15 15 15 15 16 17 17 17 17 17 17 18 19 19 18 17 16 19 19 16 15 16 21 21 21 21 21 21 21 22 24 23 24 24 23 22 21 21 20
13 13 13 14 15 16 17 17 17 17 17 17 17 16 17 18 19 18 17 15 15 16 18 17 16 16 18 21 21 22 22 21 23 25 23 19 25 24 24 23 22 21 20 20
16 16 17 17 17 17 18 18 18 17 17 17 17 17 16 17 17 18 17 16 14 17 18 15 15 16 21 21 21 22 23 25 26 25 24 25 25 25 24 23 22 20 20 21
15 15 15 16 16 17 17 17 17 17 17 18 18 17 17 17 17 17 17 16 17 16 19 18 19 20 20 21 21 22 22 23 22 23 22 24 24 24 23 23 21 20 20 20
16 14 18 16 16 16 16 16 17 17 16 17 18 17 17 17 17 17 16 18 18 19 20 20 19 20 21 21 22 22 23 24 21 22 24 25 24 24 23 22 21 20 20 20